Location: Chemnitz
(49.5500°N, 11.5830°E)
Time: 23:05:06
(UTC+01:00)

N. Korean satellite - Visible Passes

Search period start: 22 November 2017 00:00
Search period end: 02 December 2017 00:00
Orbit: 460 x 514 km, 97.2° (Epoch: 22 November)

Date Brightness Start Highest point End Pass type
(mag) Time Alt. Az. Time Alt. Az. Time Alt. Az.
22 Nov 9.5 06:18:33 10° NE 06:21:33 22° E 06:24:32 10° SE visible
22 Nov 8.1 16:59:42 10° ESE 17:02:05 17° ENE 17:04:29 10° NNE visible
22 Nov 7.8 18:31:55 10° S 18:35:18 42° W 18:38:46 10° NNW visible
23 Nov 10.1 05:56:04 10° ENE 05:57:51 13° E 05:59:39 10° ESE visible
23 Nov 6.5 18:08:13 10° SSE 18:11:45 83° WSW 18:15:24 10° NNW visible
24 Nov 6.6 17:44:51 10° SSE 17:48:18 51° ENE 17:51:50 10° N visible
24 Nov 9.8 19:20:18 10° WSW 19:22:09 14° W 19:24:02 10° WNW visible
25 Nov 8.3 06:41:10 10° NNE 06:44:44 39° E 06:48:16 10° SSE visible
25 Nov 7.4 17:21:48 10° SE 17:24:54 29° ENE 17:28:05 10° N visible
25 Nov 9.0 18:55:31 10° SSW 18:58:26 24° W 19:01:26 10° NW visible
26 Nov 9.5 06:18:05 10° NE 06:21:06 22° E 06:24:05 10° SE visible
26 Nov 8.1 16:59:11 10° ESE 17:01:36 17° ENE 17:04:03 10° NNE visible
26 Nov 7.8 18:31:24 10° S 18:34:48 43° W 18:38:19 10° NNW visible
27 Nov 10.0 05:55:34 10° ENE 05:57:23 13° E 05:59:10 10° ESE visible
27 Nov 6.6 18:07:40 10° SSE 18:11:15 84° WSW 18:14:56 10° NNW visible
28 Nov 7.0 07:04:00 10° NNE 07:07:47 73° ESE 07:11:33 10° S visible
28 Nov 6.7 17:44:17 10° SSE 17:47:46 51° ENE 17:51:21 10° N visible
28 Nov 9.8 19:19:41 10° WSW 19:21:38 14° W 19:23:36 10° WNW visible
29 Nov 8.3 06:40:39 10° NNE 06:44:13 39° E 06:47:45 10° SSE visible
29 Nov 7.4 17:21:14 10° SE 17:24:22 29° ENE 17:27:34 10° N visible
29 Nov 9.0 18:54:55 10° SSW 18:57:54 24° W 19:00:57 10° NW visible
30 Nov 9.4 06:17:33 10° NE 06:20:33 22° E 06:23:33 10° SE visible
30 Nov 8.1 16:58:35 10° ESE 17:01:02 17° ENE 17:03:32 10° NNE visible
30 Nov 7.8 18:30:48 10° S 18:34:15 44° W 18:37:47 10° NNW visible
01 Dec 10.0 05:55:02 10° ENE 05:56:49 13° E 05:58:36 10° ESE visible
01 Dec 6.6 18:07:03 10° SSE 18:10:40 84° WSW 18:14:23 10° NNW visible
